STARLINK-34434

Last updated on Thu Jul 03 2025 00:02:07 GMT+0000 (Coordinated Universal Time)

1 64422U 25129L 25183.58335648 -.01551552 00000+0 -18410-1 0 9998 2 64422 69.9999 351.5600 0003207 263.8091 26.9938 15.63973976 3682
UTC large
Height (km)
Speed (km/s)
/
Latitude / Longitude
Inclination (degrees)
Orbital Period (minutes)
Azimuth
Elevation
Range (km)
Doppler Factor

Next 0 passes for location: London (51.5072 / 0.1276)

Sorry there are no passes over London.